Regional Weather Roundup
Issued by NWS

Home | Current Version | Previous Version | Text Only | Print | Product List | Glossary On
Versions: 1 2 3 4 5 6 7 8 9 10 11 12 13 14 15 16 17 18 19 20 21 22 23 24 25 26 27 28 29 30 31 32 33 34 35 36 37 38 39 40 41 42 43 44 45 46 47 48 49 50
080
ASUS43 KLSX 252207
RWRMO

WEATHER SUMMARY FOR MISSOURI
NATIONAL WEATHER SERVICE SPRINGFIELD MO
500 PM CDT WED APR 25 2018

NOTE: "FAIR" INDICATES FEW OR NO CLOUDS BELOW 12,000 FEET WITH NO
       SIGNIFICANT WEATHER AND/OR OBSTRUCTIONS TO VISIBILITY.
       CURRENT SKY AND/OR WEATHER CONDITIONS ARE NOT AVAILABLE FOR
       CHILLICOTHE AND FARMINGTON.

MOZ001>031-035>038-043-044-053-054-252300-
...NORTHERN AND WESTERN MISSOURI...

CITY           SKY/WX    TMP DP  RH WIND       PRES   REMARKS
KANSAS CTY INT LGT RAIN  50  47  89 NE9       30.08F
KANSAS C DTWN  LGT RAIN  50  46  86 N8        30.07F
LEE`S SUMMIT   LGT RAIN  49  48  97 N12       30.07F
ST JOSEPH      CLOUDY    54  44  69 NE9       30.09F
CHILLICOTHE      N/A     52  48  86 NW3       30.09F
KIRKSVILLE     CLOUDY    54  48  80 W8        30.06F

$$
MOZ066>068-077>081-088>096-101>105-252300-
...SOUTHWEST MISSOURI...

CITY           SKY/WX    TMP DP  RH WIND       PRES   REMARKS
SPRINGFIELD    RAIN      54  49  83 S3        30.02F
JOPLIN         RAIN      52  50  93 CALM      30.02F FOG
BRANSON        LGT RAIN  52  52 100 CALM      30.04F FOG

$$
MOZ032>034-039>042-045>050-055>058-069>072-252300-
...CENTRAL MISSOURI...

CITY           SKY/WX    TMP DP  RH WIND       PRES   REMARKS
COLUMBIA       CLOUDY    53  49  86 NW9       30.05F
JEFFERSON CITY LGT RAIN  54  49  83 NW8       30.05F
ROLLA          LGT RAIN  55  45  68 W9        30.04F
SEDALIA        LGT RAIN  52  51  97 N7        30.07F FOG
WHITEMAN AFB   LGT RAIN  50  49  94 N8        30.02F
WARRENSBURG    LGT RAIN  48  46  93 N8        30.07F
OSAGE BEACH    LGT RAIN  54  50  86 NW3       30.05F

$$
MOZ051-052-059>065-252300-
...EAST CENTRAL MISSOURI...

CITY           SKY/WX    TMP DP  RH WIND       PRES   REMARKS
ST LOUIS INTL  CLOUDY    65  52  62 N9        29.99F
SPIRIT OF STL  CLOUDY    65  51  60 N8        29.99S
ST CHARLES     CLOUDY    65  49  56 N9        29.99F

$$
MOZ072>076-082>087-097>100-106>115-252300-
...SOUTH CENTRAL AND SOUTHEAST MISSOURI...

CITY           SKY/WX    TMP DP  RH WIND       PRES   REMARKS
CAPE GIRARDEAU FAIR      68  56  65 SW3       29.94F
FARMINGTON     CLOUDY    64  46  52 NW9       29.98F
POPLAR BLUFF   CLOUDY    64  48  56 SW12G20   29.98S
WEST PLAINS    LGT RAIN  56  50  80 W6        30.03F

$$




USA.gov is the U.S. government's official web portal to all federal, state and local government web resources and services.